[[{"header":{"parameterUnit":"m.s-1","parameterCategory":1,"la1":30.2991,"la2":30.254,"lo1":-89.0895,"lo2":-89.0444,"dy":0.0017,"dx":0.0017,"nx":28,"ny":28,"refTime":"2026-01-07T09:00:00:Z","depth":0,"parameterNumber":2,"parameterNumberName":"U-component_of_WINDS"},"data":[0,0,0,0,0,0,0,0,0,0,0,0,0,0,0,0,0,0,0,0,0,0,0,0,0,0,0,0,0,0,0,0,0,0,0,0,0,0,0,0,0,0,0,0,0,0,0,0,0,0,0,0,0,0,0,0,0,0,1.3336,1.3336,0,1.3351,1.3351,1.3352,1.3316,1.3315,1.3314,1.3313,1.333,1.3332,1.3333,0,0,0,0,0,0,0,0,0,0,0,0,0,1.3276,1.3278,1.3336,1.3336,1.3336,1.3351,1.3351,1.3352,1.3317,1.3315,1.3314,1.3313,1.333,1.3332,1.3333,0,0,0,0,0,0,0,0,0,0,0,0,0,1.3298,1.3278,1.3336,1.332,1.3319,1.3351,1.3351,1.3352,1.3317,1.3315,1.3313,1.3312,1.3329,1.3331,1.3334,1.3382,0,0,1.3341,1.3342,0,0,0,0,0,0,0,0,1.3297,1.33,1.3322,1.3322,1.332,1.333,1.3337,1.3362,1.3317,1.3318,1.3313,1.3311,1.3332,1.3334,1.334,1.3383,1.3383,1.3341,1.3342,1.3343,1.3344,0,0,0,0,0,0,0,1.3295,1.3299,1.3342,1.3323,1.3321,1.3313,1.3314,1.3341,1.3334,1.3318,1.3315,1.3317,1.3331,1.3338,1.3341,1.3384,1.3341,1.3343,1.3344,1.3345,1.3465,1.3467,0,0,0,0,0,0,1.3296,1.3298,1.3341,1.3342,1.3304,1.3315,1.3317,1.3329,1.3334,1.3333,1.3319,1.3316,1.3335,1.3338,1.3341,1.3397,1.3343,1.3345,1.3347,1.3463,1.3465,1.3467,0,0,0,0,0,0,1.3295,1.33,1.3341,1.332,1.3324,1.3318,1.3332,1.333,1.3337,1.3335,1.3333,1.3328,1.3334,1.3338,1.3372,1.3397,1.3346,1.3348,1.3461,1.3464,1.3466,1.351,0,0,0,0,0,0,1.3293,1.33,1.3318,1.332,1.3326,1.3371,1.3333,1.3331,1.3341,1.3337,1.3343,1.3342,1.3333,1.3368,1.3374,1.3399,1.335,1.3459,1.3462,1.3466,1.3506,1.3514,1.352,0,0,0,0,0,1.3291,1.333,1.3319,1.3324,1.3348,1.3373,1.3376,1.3364,1.3343,1.3361,1.336,1.3342,1.3393,1.3372,1.3378,1.3405,1.3457,1.3461,1.3465,1.3503,1.3512,1.352,0,0,0,0,0,0,1.3331,1.333,1.3318,1.3359,1.3366,1.3367,1.3389,1.3374,1.3388,1.3384,1.337,1.3371,1.3408,1.3409,1.3386,1.3451,1.3422,1.3427,1.3448,1.3457,1.3464,1.3463,1.3352,0,0,0,0,0,1.3345,1.3364,1.3362,1.3399,1.3403,1.3395,1.3406,1.3396,1.3403,1.3406,1.3407,1.3415,1.3433,1.3445,1.3462,1.3506,1.3506,1.3527,1.3534,1.354,1.3545,1.3568,1.3577,1.3481,1.3481,1.3481,0,0,1.3373,1.3375,1.3388,1.3407,1.3411,1.3432,1.3398,1.3422,1.3437,1.341,1.3442,1.3443,1.345,1.349,1.3507,1.3492,1.3571,1.3545,1.355,1.3552,1.3573,1.3582,1.359,1.3484,1.3483,1.3483,0,0,1.3435,1.3438,1.3469,1.3474,1.3481,1.3475,1.3483,1.3485,1.3485,1.3516,1.3496,1.3514,1.3545,1.3552,1.3559,1.3622,1.3606,1.3628,1.3665,1.3688,1.3695,1.3702,1.3724,1.3733,1.3633,1.3633,1.3633,0,1.3469,1.35,1.3486,1.3511,1.352,1.3495,1.3525,1.3531,1.3544,1.355,1.3533,1.3571,1.3575,1.3615,1.3631,1.3637,1.3645,1.3628,1.3695,1.3702,1.3708,1.3729,1.3737,1.3636,1.3636,1.3635,1.3635,0,1.3541,1.3563,1.3586,1.3598,1.3609,1.3637,1.3627,1.3641,1.363,1.3626,1.3658,1.3662,1.3678,1.3687,1.3677,1.3725,1.3716,1.3698,1.3668,1.372,1.3739,1.3747,1.364,1.3639,1.3638,1.3637,0,0,1.3629,1.3633,1.3642,1.3646,1.3652,1.3668,1.3695,1.371,1.3721,1.3731,1.3752,1.3779,1.3761,1.377,1.376,1.378,1.383,1.3759,1.3759,1.3772,1.3883,1.3896,1.3906,1.3819,1.3821,1.3822,1.3882,0,1.369,1.3735,1.3723,1.3768,1.3787,1.3764,1.3787,1.3793,1.379,1.3807,1.3804,1.3823,1.3799,1.3803,1.3822,1.382,1.3852,1.3815,1.3839,1.384,1.3838,1.3916,1.3931,1.3987,1.3889,1.3891,1.3892,0,1.3768,1.3779,1.3825,1.3827,1.3835,1.3856,1.3868,1.3884,1.3891,1.3887,1.3896,1.3882,1.3908,1.3878,1.3914,1.3889,1.3898,1.3899,1.39,1.3902,1.3869,1.392,1.4005,1.4014,1.3904,1.3903,1.3902,0,1.3826,1.3854,1.3885,1.389,1.3893,1.3908,1.391,1.3914,1.3924,1.3935,1.3941,1.3956,1.3964,1.3975,1.3966,1.3945,1.4003,1.3972,1.4,1.4001,1.4014,1.4013,1.4101,1.402,1.402,1.402,1.4019,0,1.3896,1.3925,1.3911,1.393,1.3962,1.3948,1.3981,1.398,1.3984,1.4003,1.3984,1.4002,1.3988,1.4005,1.3998,1.4028,1.4032,1.403,1.4027,1.4031,1.4031,1.4037,1.4032,1.4022,1.4021,1.4021,1.402,0,1.3967,1.3959,1.3991,1.3991,1.3992,1.4015,1.4015,1.4033,1.4029,1.4053,1.4057,1.4051,1.4069,1.4061,1.4081,1.4076,1.4114,1.4107,1.4112,1.411,1.4139,1.4136,1.4234,1.4246,1.4157,1.4158,1.4158,0,1.4011,1.4033,1.4035,1.4046,1.4049,1.4067,1.4077,1.4064,1.4075,1.4083,1.41,1.4117,1.413,1.4161,1.4158,1.4173,1.4165,1.4198,1.4167,1.417,1.4165,1.4164,1.4166,1.4205,1.4206,1.4207,1.4207,0,1.4091,1.4086,1.41,1.4114,1.4125,1.4135,1.4143,1.4153,1.4141,1.4154,1.4173,1.4182,1.4202,1.4219,1.4232,1.4234,1.4219,1.4217,1.4224,1.4228,1.423,1.4229,1.4129,1.4215,1.4214,1.4213,1.4213,1.4213,1.415,1.4168,1.4172,1.4189,1.4194,1.4202,1.4218,1.4215,1.423,1.4245,1.4237,1.4258,1.4264,1.4279,1.4283,1.43,1.4287,1.4298,1.43,1.4303,1.4306,1.4228,1.4302,1.4302,1.4302,1.4302,1.4302,0,1.4228,1.423,1.4245,1.4257,1.427,1.4254,1.4262,1.4274,1.4293,1.4299,1.4312,1.4333,1.4349,1.4347,1.4362,1.4375,1.4368,1.438,1.4378,1.4379,1.4318,1.431,1.4385,1.4385,1.4385,1.4385,1.4385,1.4385,1.427,1.43,1.4295,1.4327,1.4328,1.4349,1.4355,1.4362,1.4366,1.439,1.4404,1.4402,1.4405,1.4419,1.4433,1.4432,1.4439,1.4452,1.4449,1.4392,1.4383,1.4375,1.4368,1.4454,1.4454,1.4508,1.4509,1.4509]},{"header":{"parameterUnit":"m.s-1","parameterCategory":1,"la1":30.2991,"la2":30.254,"lo1":-89.0895,"lo2":-89.0444,"dy":0.0017,"dx":0.0017,"nx":28,"ny":28,"refTime":"2026-01-07T09:00:00:Z","depth":0,"parameterNumber":3,"parameterNumberName":"V-component_of_WINDS"},"data":[0,0,0,0,0,0,0,0,0,0,0,0,0,0,0,0,0,0,0,0,0,0,0,0,0,0,0,0,0,0,0,0,0,0,0,0,0,0,0,0,0,0,0,0,0,0,0,0,0,0,0,0,0,0,0,0,0,0,2.3977,2.3977,0,2.3997,2.3997,2.3997,2.4004,2.4004,2.4004,2.4004,2.4024,2.4024,2.4025,0,0,0,0,0,0,0,0,0,0,0,0,0,2.3943,2.3943,2.3977,2.3977,2.3977,2.3997,2.3997,2.3998,2.4004,2.4004,2.4004,2.4004,2.4023,2.4024,2.4025,0,0,0,0,0,0,0,0,0,0,0,0,0,2.396,2.3943,2.3977,2.3983,2.3984,2.3997,2.3997,2.3998,2.4004,2.4004,2.4004,2.4004,2.4023,2.4024,2.4025,2.4033,0,0,2.4028,2.4028,0,0,0,0,0,0,0,0,2.3959,2.3961,2.3982,2.3983,2.3984,2.3998,2.3992,2.4009,2.4004,2.3997,2.4004,2.4004,2.4015,2.4017,2.4021,2.4034,2.4035,2.4028,2.4028,2.4029,2.4029,0,0,0,0,0,0,0,2.3957,2.396,2.3985,2.3982,2.3983,2.3984,2.3987,2.3996,2.4006,2.3997,2.3998,2.4,2.4016,2.402,2.4021,2.4035,2.4028,2.4029,2.4029,2.4029,2.4055,2.4056,0,0,0,0,0,0,2.3955,2.3959,2.3984,2.3985,2.3971,2.3985,2.3988,2.3993,2.4006,2.4008,2.4,2.4,2.4018,2.402,2.4022,2.4032,2.4029,2.403,2.403,2.4055,2.4055,2.4056,0,0,0,0,0,0,2.3955,2.3957,2.3983,2.3972,2.3976,2.3986,2.3992,2.3994,2.3998,2.4008,2.401,2.4003,2.4018,2.4021,2.403,2.4033,2.403,2.4031,2.4055,2.4055,2.4055,2.4053,0,0,0,0,0,0,2.3954,2.3957,2.3961,2.3972,2.3976,2.3992,2.3992,2.3994,2.4,2.4,2.4011,2.4013,2.4018,2.4029,2.4031,2.4034,2.4031,2.4055,2.4055,2.4055,2.4052,2.4053,2.4053,0,0,0,0,0,2.3952,2.3959,2.3961,2.3964,2.3981,2.3992,2.3994,2.4,2.4,2.4003,2.401,2.4013,2.4032,2.403,2.4032,2.4036,2.4055,2.4055,2.4055,2.4052,2.4053,2.4053,0,0,0,0,0,0,2.3947,2.396,2.3963,2.3973,2.3981,2.3993,2.3997,2.4,2.4008,2.4008,2.4016,2.4018,2.4027,2.4032,2.4029,2.4044,2.4044,2.4044,2.404,2.4041,2.4041,2.4039,2.4032,0,0,0,0,0,2.3947,2.3955,2.3966,2.3974,2.3978,2.3987,2.3992,2.3996,2.4005,2.4008,2.4015,2.4023,2.4031,2.4036,2.4044,2.4053,2.4056,2.4057,2.4057,2.4057,2.4058,2.4063,2.4064,2.4057,2.4057,2.4057,0,0,2.3947,2.3955,2.396,2.3973,2.398,2.3988,2.399,2.3998,2.4004,2.4009,2.4019,2.4024,2.4033,2.4043,2.4047,2.4047,2.406,2.4057,2.4057,2.4058,2.4063,2.4064,2.4065,2.4057,2.4057,2.4057,0,0,2.3951,2.3958,2.3966,2.3973,2.3983,2.3989,2.399,2.4001,2.4006,2.4015,2.4019,2.4026,2.404,2.4046,2.4051,2.4057,2.406,2.406,2.4061,2.4066,2.4066,2.4067,2.4069,2.407,2.406,2.406,2.406,0,2.395,2.3962,2.3969,2.3977,2.3983,2.3989,2.3996,2.4002,2.4014,2.4018,2.4018,2.4035,2.4041,2.4053,2.4054,2.4058,2.406,2.4059,2.4066,2.4066,2.4067,2.4069,2.407,2.406,2.406,2.406,2.406,0,2.396,2.3968,2.3973,2.3985,2.3992,2.3999,2.4007,2.4013,2.4016,2.4022,2.4032,2.404,2.4049,2.4052,2.4056,2.4064,2.4063,2.4064,2.4064,2.4067,2.407,2.4071,2.406,2.406,2.406,2.406,0,0,2.3961,2.3977,2.3979,2.3985,2.3996,2.4003,2.4011,2.402,2.4025,2.4033,2.404,2.4051,2.4052,2.4058,2.4062,2.4066,2.4071,2.4067,2.4067,2.4067,2.408,2.408,2.4081,2.4073,2.4073,2.4073,2.408,0,2.3967,2.3982,2.3989,2.4,2.4008,2.4014,2.402,2.4028,2.4033,2.4041,2.4046,2.4054,2.4055,2.4058,2.4063,2.4069,2.4074,2.4069,2.4079,2.4079,2.4077,2.4082,2.4081,2.4087,2.4081,2.4081,2.4081,0,2.3976,2.3985,2.3998,2.4008,2.4012,2.4018,2.4027,2.4034,2.4043,2.4046,2.4053,2.4057,2.4065,2.4064,2.4075,2.4072,2.4076,2.408,2.408,2.4082,2.408,2.4084,2.4089,2.409,2.4082,2.4082,2.4082,0,2.3977,2.3991,2.4001,2.4005,2.4018,2.4022,2.4027,2.4036,2.4041,2.4049,2.4053,2.4062,2.4066,2.4073,2.4079,2.4078,2.409,2.4089,2.4093,2.4093,2.4095,2.4095,2.4102,2.4098,2.4098,2.4098,2.4098,0,2.3983,2.399,2.4001,2.4007,2.4015,2.4022,2.403,2.4036,2.4044,2.405,2.4055,2.4061,2.4069,2.4076,2.4081,2.4089,2.4091,2.4094,2.4096,2.4094,2.4094,2.4097,2.4097,2.4098,2.4098,2.4098,2.4098,0,2.3985,2.3992,2.4003,2.4014,2.4017,2.4023,2.4032,2.4038,2.4043,2.4052,2.4054,2.4063,2.4071,2.4078,2.4089,2.4092,2.4101,2.4102,2.4099,2.4099,2.4103,2.4102,2.4112,2.4114,2.4108,2.4108,2.4108,0,2.3988,2.3994,2.4006,2.4011,2.4017,2.4025,2.403,2.4037,2.4043,2.4053,2.4058,2.4066,2.4074,2.4087,2.4094,2.4103,2.4105,2.4107,2.4106,2.4104,2.4105,2.4105,2.4105,2.4108,2.4108,2.4108,2.4108,0,2.3994,2.3997,2.4006,2.4015,2.4022,2.4029,2.4037,2.4041,2.4049,2.4055,2.4064,2.407,2.4081,2.409,2.4099,2.4104,2.4107,2.4108,2.4109,2.4108,2.4106,2.4107,2.4099,2.4108,2.4108,2.4108,2.4108,2.4108,2.3997,2.4003,2.4012,2.4021,2.4027,2.4034,2.404,2.4047,2.4054,2.4065,2.4068,2.4077,2.4085,2.4098,2.4103,2.4111,2.4111,2.4113,2.4113,2.4114,2.4113,2.4104,2.4112,2.4112,2.4112,2.4112,2.4112,0,2.4003,2.4009,2.4018,2.4028,2.4035,2.4038,2.4046,2.4052,2.406,2.4068,2.4075,2.4085,2.4094,2.4101,2.411,2.4114,2.4116,2.4117,2.4116,2.4118,2.4113,2.4111,2.4115,2.4115,2.4115,2.4115,2.4115,2.4115,2.4007,2.4017,2.4021,2.4034,2.404,2.405,2.4054,2.4061,2.4067,2.4078,2.4085,2.409,2.4098,2.4107,2.4115,2.4117,2.412,2.4121,2.4123,2.4118,2.4118,2.4118,2.4116,2.4121,2.4121,2.4127,2.4127,2.4127]}]]